RH
53 40 38 32 29 28 29 28 26 23 30 31 37 66 93 94 93 87 78 79 80 78 71 72 57 60 61 60 57 55 79 82 59 50 45 37 39 36 34 30 29 31 31 30 37
47 40 38 38 32 29 27 28 30 25 27 35 36 70 92 97 95 88 82 75 78 81 64 69 58 60 62 60 56 66 86 73 46 44 46 40 39 38 34 32 31 30 31 32 36
48 46 39 37 38 32 29 27 27 29 30 37 37 70 86 94 88 75 72 77 60 63 64 66 60 60 62 60 58 63 77 54 49 43 42 41 39 37 41 40 31 30 31 35 36
53 47 47 40 38 36 32 29 28 29 32 43 40 71 83 87 78 68 74 65 59 67 68 62 58 57 63 66 57 62 56 51 48 42 41 41 39 37 37 31 30 29 28 35 36
72 55 50 45 41 40 34 31 29 29 33 48 52 66 80 93 86 69 62 55 58 64 60 58 56 55 65 61 55 63 54 46 45 44 44 42 41 40 37 33 30 30 32 36 38
85 80 66 52 41 40 39 34 31 29 33 61 57 73 81 89 61 66 65 59 53 54 59 56 54 51 51 46 61 47 48 46 49 46 43 46 43 42 37 32 30 31 32 35 36
87 89 84 73 57 41 40 38 34 30 33 67 71 79 87 65 61 62 60 60 50 48 51 53 52 47 43 44 42 38 46 34 46 49 43 41 42 42 35 28 29 30 32 34 30
77 90 89 86 72 61 45 42 38 32 34 68 86 94 87 57 63 66 55 39 49 44 42 48 49 44 36 36 36 43 40 46 33 48 31 32 43 24 31 27 28 29 30 30 26
76 86 90 90 84 75 64 53 39 36 42 77 82 83 79 65 69 66 54 33 42 43 40 42 47 37 37 45 47 43 50 46 36 44 34 32 35 26 27 31 26 22 20 28 25
75 81 94 93 91 87 78 69 51 45 59 88 87 89 70 60 63 62 42 41 41 39 39 41 38 50 49 53 51 51 49 40 43 45 33 35 36 29 27 33 31 28 20 23 30
86 85 86 100 98 93 84 79 61 70 82 54 60 56 52 55 55 57 45 41 42 42 52 44 58 59 53 46 35 36 36 29 29 32 36 41 37 34 26 27 35 33 26 23 29
72 86 89 93 98 87 89 85 65 56 62 53 54 64 52 53 46 47 44 41 43 56 47 51 61 48 42 42 40 28 31 30 28 25 34 31 36 34 33 29 26 30 32 22 29
76 62 81 96 89 100 80 82 79 68 68 51 38 51 52 52 45 44 43 40 48 55 55 59 42 39 39 46 42 33 36 32 31 27 27 30 38 33 28 28 22 23 23 28 24
90 72 63 88 88 91 98 61 77 68 77 55 55 40 44 53 48 40 40 36 46 56 52 50 33 38 38 37 34 39 28 29 33 34 42 30 48 35 26 30 29 25 23 26 24
72 92 67 74 81 92 75 70 54 71 96 41 46 39 45 45 40 40 35 38 46 43 43 47 40 37 36 33 30 34 30 32 33 41 39 37 49 40 28 33 34 33 24 20 20
78 87 90 66 84 86 88 66 76 96 93 53 40 45 50 41 38 40 43 36 30 32 32 34 28 30 31 34 30 33 36 47 51 50 68 44 44 40 36 32 35 30 30 24 31
74 78 100 86 84 86 91 83 98 97 48 58 53 50 53 51 45 42 44 46 47 53 49 36 33 30 31 38 33 37 49 83 78 79 71 44 40 39 27 27 32 36 37 36 36
77 74 94 98 80 97 100 100 97 69 64 42 47 48 61 48 48 47 49 52 46 48 66 70 59 38 32 35 41 43 51 77 62 96 79 28 49 34 22 24 27 29 33 35 34
83 82 92 85 82 92 100 97 84 79 62 75 46 56 57 48 54 51 55 48 45 50 58 71 51 35 33 29 34 41 52 46 66 58 70 50 37 29 22 37 41 39 33 31 30
98 97 95 96 75 92 98 92 83 58 70 78 88 56 68 50 60 60 61 45 44 46 52 57 65 37 33 30 30 36 40 56 83 73 74 62 48 39 29 39 44 44 35 27 25
100 100 70 70 88 99 98 97 71 59 53 77 92 100 63 58 57 62 66 45 38 43 50 54 63 50 36 43 48 46 46 70 73 87 78 73 51 35 30 32 43 41 33 27 26
100 99 83 93 99 99 94 100 66 62 53 64 70 78 91 59 59 67 62 53 39 50 54 57 78 81 54 43 39 41 61 79 79 71 93 87 52 32 29 29 33 36 31 28 26
99 96 95 98 98 93 98 98 97 66 67 68 78 61 72 97 86 56 63 48 47 52 61 66 79 88 68 59 56 51 63 79 84 86 87 67 47 32 28 30 24 27 28 26 25
100 99 100 99 98 84 81 92 92 70 75 81 72 62 78 95 74 78 56 47 44 52 57 56 72 71 71 66 78 71 86 70 68 87 75 65 44 33 31 30 29 23 22 24 23
98 99 98 98 99 100 97 99 96 99 86 79 94 77 93 98 100 82 58 53 52 57 64 61 80 76 65 77 63 73 78 80 60 65 60 47 52 36 34 33 29 20 21 24 24
99 99 100 100 89 96 91 100 94 85 97 98 96 88 88 99 94 99 76 63 57 60 83 89 85 66 66 69 56 62 66 76 62 56 57 54 56 44 30 27 29 25 26 28 30
99 100 99 98 100 98 94 89 93 80 82 69 92 93 92 78 68 81 71 70 66 70 89 77 85 84 87 63 59 70 65 66 61 62 53 60 43 44 41 40 34 30 29 29 30
Wind_Speed
18 17 16 16 17 17 17 18 20 19 19 13 7 2 2 5 6 8 13 9 9 6 6 10 11 14 10 7 6 5 3 2 3 4 3 2 3 3 5 11 5 5 15 25 31
17 17 17 17 17 16 17 19 17 18 18 13 5 4 6 4 5 12 10 8 7 8 7 11 12 11 6 6 6 4 4 7 1 1 2 2 4 6 5 8 5 9 13 39 33
18 18 17 17 17 16 15 16 18 17 15 12 5 6 7 3 8 8 12 7 5 9 15 13 9 9 5 6 6 5 5 4 1 4 3 2 2 1 11 2 12 26 38 34 32
18 18 17 16 16 16 16 16 15 15 14 10 4 8 7 5 4 4 7 7 6 13 16 12 8 11 5 5 10 3 10 4 7 3 3 2 1 1 6 4 12 21 30 35 31
19 18 18 19 16 15 16 14 15 15 11 9 3 8 7 6 12 7 6 9 10 15 16 12 9 9 5 5 5 5 4 4 11 7 4 4 3 3 4 8 8 28 32 33 32
20 19 18 19 17 16 14 14 14 13 11 6 5 8 8 6 6 6 6 10 12 15 17 10 7 6 3 3 7 4 3 4 11 8 4 5 4 2 9 10 13 32 30 31 30
22 20 19 19 17 16 14 12 12 11 9 6 7 9 11 18 8 5 7 12 14 16 15 12 9 7 3 4 5 4 3 3 6 8 3 5 5 9 10 16 29 31 30 28 29
22 22 19 19 17 15 12 12 11 9 7 7 7 8 10 7 12 13 9 12 14 15 13 12 10 6 3 6 3 4 4 2 3 9 5 7 7 4 17 23 29 28 27 25 29
23 23 21 20 18 16 13 12 11 9 6 9 8 8 10 7 18 13 12 9 13 14 10 11 11 5 5 5 3 2 3 5 4 7 5 5 6 4 9 28 27 27 26 26 30
22 24 23 22 20 18 17 15 12 9 5 9 9 4 12 10 12 16 16 10 7 11 9 7 5 4 3 4 5 6 4 4 5 7 4 5 8 6 4 21 29 29 28 28 31
23 22 24 23 20 18 18 12 5 4 13 13 12 8 4 10 10 18 18 18 7 7 5 4 4 10 13 8 3 6 4 3 3 3 5 8 5 10 13 11 18 30 29 30 33
21 24 23 22 20 20 19 12 11 6 9 21 26 20 12 14 9 17 22 13 8 6 3 3 8 9 8 7 5 2 3 3 2 0 5 3 11 9 11 11 24 30 34 34 35
21 21 25 21 20 22 21 20 15 11 5 10 26 31 25 25 13 23 25 15 5 6 7 6 5 11 8 7 9 5 5 4 3 2 3 3 7 4 5 14 23 31 32 37 40
26 21 21 21 20 24 26 17 12 9 3 7 8 14 25 20 12 22 32 15 5 12 6 6 5 8 7 5 6 6 5 5 6 3 4 1 4 4 2 1 6 17 23 28 32
31 25 21 19 17 15 12 10 9 7 4 4 4 6 13 24 16 19 34 16 8 7 7 7 8 6 4 5 6 4 6 5 3 4 4 1 2 6 1 3 5 8 15 21 29
26 26 22 19 26 24 13 17 13 3 8 3 4 4 10 6 3 12 18 10 6 4 2 4 1 4 4 3 4 9 7 8 5 3 2 5 5 5 5 6 5 4 14 25 33
25 27 25 18 25 21 20 19 6 6 1 5 5 6 14 6 3 6 13 14 7 6 5 2 1 1 5 8 6 5 6 3 3 2 5 1 3 8 5 6 8 10 20 28 34
23 25 25 21 22 20 27 5 9 8 11 3 4 6 11 8 4 4 9 14 8 3 5 6 3 8 5 5 7 6 6 5 7 4 2 1 6 5 3 6 10 24 30 32 32
20 20 24 25 20 23 22 9 8 6 6 6 4 6 8 10 6 5 6 13 10 9 7 5 3 2 3 3 5 6 4 3 6 3 3 4 6 6 1 3 10 21 28 31 32
18 20 27 21 21 27 11 12 8 6 8 5 9 8 11 13 6 12 10 11 12 13 3 7 5 1 2 3 3 3 6 3 3 4 4 4 4 5 6 7 7 10 22 33 32
17 8 15 14 23 15 9 9 11 4 3 6 7 3 3 6 10 9 9 5 20 17 9 5 4 2 4 5 7 3 2 4 4 3 5 3 5 5 8 8 13 14 28 35 32
14 4 7 20 8 3 14 6 7 12 19 5 9 10 6 11 10 11 11 6 14 10 13 5 5 4 5 1 2 3 6 5 4 5 1 3 5 2 5 9 14 18 29 32 30
11 9 9 24 7 11 3 4 5 5 5 7 8 6 5 3 3 12 7 1 9 7 13 8 0 3 5 5 4 5 5 4 4 3 5 6 5 1 2 7 18 22 28 29 28
4 1 8 18 4 7 11 8 4 10 4 3 3 3 4 3 4 4 3 2 3 4 9 9 4 6 7 7 5 5 5 6 6 3 4 6 2 5 6 7 8 17 23 23 22
4 2 2 3 3 3 8 5 7 5 6 7 4 11 7 3 4 3 1 3 5 7 4 4 4 3 2 5 4 5 8 9 11 5 6 4 9 8 11 9 13 20 17 16 17
6 4 5 3 2 7 8 4 7 10 8 7 6 11 10 7 4 3 2 1 4 3 3 3 2 3 2 2 2 2 5 9 6 4 8 2 6 6 7 11 11 18 18 17 18
11 9 4 2 2 4 4 6 2 5 12 13 12 8 18 20 9 3 4 7 5 7 4 5 5 3 2 2 2 5 12 14 8 6 9 7 7 7 5 8 15 17 20 20 17
Wind_Direction
335 337 340 341 344 347 348 348 345 345 342 335 312 235 168 143 144 162 175 190 199 166 205 189 191 183 181 184 184 164 83 208 245 163 241 139 120 69 98 125 123 176 159 162 162
325 327 330 335 339 340 343 342 344 342 343 341 311 193 167 172 240 220 195 194 210 208 191 185 175 172 184 184 183 133 143 211 274 159 202 79 110 139 121 108 69 128 153 157 166
323 321 321 324 330 333 335 338 339 340 340 336 308 199 185 276 292 243 203 212 218 199 180 183 188 203 199 182 187 173 183 199 191 122 88 88 59 152 136 170 179 148 150 160 167
320 316 314 315 320 325 330 331 335 335 334 332 298 204 213 271 264 173 179 192 167 168 181 180 196 189 171 195 194 151 223 206 168 169 123 97 325 185 194 213 192 176 169 169 171
319 318 312 310 312 319 322 324 328 329 326 323 261 211 229 261 261 225 176 166 170 185 189 183 183 176 181 195 159 183 205 166 164 176 152 152 223 209 232 212 215 184 173 173 178
309 311 310 307 308 311 315 317 320 324 316 298 246 217 243 259 259 232 209 190 190 188 185 185 186 198 242 224 164 159 157 165 175 180 180 176 232 193 227 208 182 172 177 178 184
298 303 307 308 309 306 306 309 311 316 304 274 240 230 249 248 242 254 222 212 194 189 187 194 190 185 181 119 136 123 141 349 197 180 181 185 280 228 207 178 165 172 176 181 181
289 291 294 297 301 312 313 311 304 304 282 248 241 245 253 250 220 230 244 222 205 194 193 185 185 154 145 121 65 109 63 124 250 154 177 125 266 271 210 179 171 176 178 180 178
279 279 283 287 289 294 305 321 309 294 256 226 234 235 262 234 207 220 221 201 183 194 183 189 174 136 120 99 30 347 195 199 290 196 143 155 252 277 205 186 182 183 181 180 177
277 276 273 276 282 290 297 296 296 280 229 219 209 256 242 233 211 212 192 189 174 168 152 157 135 107 82 126 202 188 207 214 211 205 167 182 250 279 151 184 188 194 192 187 187
272 275 274 269 271 283 293 316 281 239 202 205 206 203 281 212 204 191 192 177 186 183 160 210 133 194 192 181 194 142 178 178 244 204 145 215 239 236 240 203 197 200 198 194 192
292 268 275 273 267 265 277 280 272 270 287 245 241 242 238 188 176 192 189 185 170 208 168 82 238 209 181 183 212 163 169 204 342 131 175 250 258 229 221 222 211 203 206 203 198
293 291 269 272 259 253 254 263 264 270 263 259 235 230 227 201 199 195 189 194 178 193 202 173 245 172 175 170 186 189 172 194 161 181 292 347 281 242 243 218 216 218 213 209 204
280 286 281 265 261 252 255 264 235 234 268 269 217 239 209 192 218 213 197 176 197 197 173 241 261 147 150 166 143 172 189 147 131 114 226 100 275 294 297 195 192 197 206 207 209
274 273 274 246 244 233 243 209 177 175 265 233 218 220 196 173 137 193 197 192 184 184 140 234 175 164 159 188 153 184 122 116 104 93 39 245 87 264 111 235 204 199 190 195 196
279 266 260 256 243 238 223 170 166 154 234 273 164 163 156 204 116 132 171 187 181 163 104 196 168 135 157 64 137 136 79 49 51 74 3 229 156 271 193 201 204 203 199 184 181
278 274 256 248 236 230 202 161 214 211 294 211 197 167 184 195 126 146 171 190 171 134 179 126 172 54 129 83 16 84 94 33 2 356 218 221 154 248 236 219 188 179 173 171 168
269 272 261 241 243 232 194 176 232 191 212 121 146 150 188 152 196 140 143 194 232 127 133 149 207 176 182 172 174 176 156 153 193 191 212 89 228 256 252 296 204 172 165 166 173
276 269 255 254 238 229 190 217 213 183 177 121 78 149 217 202 144 142 189 206 215 188 152 137 200 58 78 122 141 180 189 174 106 21 53 218 278 301 169 70 129 151 170 177 179
265 264 254 238 236 219 219 203 211 204 129 114 162 235 196 198 157 181 167 206 216 191 172 193 106 119 140 105 15 140 166 91 6 135 233 271 268 236 206 187 160 157 175 180 182
267 219 268 239 216 205 228 218 209 213 192 158 161 230 247 198 196 193 207 254 197 188 157 139 100 232 128 210 175 138 197 61 112 130 164 167 254 213 205 179 177 184 187 188 192
243 235 228 184 192 197 226 190 221 191 209 194 173 191 182 239 197 204 203 219 176 156 179 171 123 136 196 275 217 175 185 151 130 232 129 149 272 303 215 172 169 186 193 196 203
219 226 227 190 201 207 236 199 227 183 194 190 182 195 106 266 242 202 181 295 155 156 158 183 17 81 5 353 345 216 191 128 121 92 203 140 256 323 79 158 186 185 200 205 208
268 253 212 220 164 197 218 236 207 203 229 154 196 197 87 251 252 186 147 77 121 119 104 114 127 154 183 201 144 183 183 170 127 124 167 225 213 226 210 183 188 198 198 200 207
218 246 180 261 167 184 199 181 177 198 234 171 204 204 171 203 213 168 148 114 38 117 67 103 139 119 52 132 121 164 172 172 188 172 166 235 198 218 202 192 188 193 191 182 183
181 200 169 191 161 168 238 206 178 187 190 202 214 188 184 213 197 148 38 213 183 42 98 353 143 115 99 161 47 143 182 197 206 199 268 231 265 224 201 181 180 193 190 190 177
221 205 180 150 145 166 196 218 241 225 214 203 208 202 204 218 204 211 228 237 239 155 140 126 131 100 198 127 71 308 208 189 205 204 195 200 220 153 165 177 189 195 189 180 183